Theta_e
324 317 314 319 312 314 312 306 299 296 295 292 287 293 295 294 295 296 295 298 300 300 297 301 308 308 308 307 309 307 305 310 307 303 301 310 325 335 337 336 341 343 343 344 347 349 349 346 348 348 347 344 344 345 344 342 341 341 341 341 341 339 339 338 338 340 341 341 347 347 345 343 340 339 338 338 339 342 342 342 341 341 342 343 342 341 340 339 338 339 340 339 338 338 338 339 339
318 316 317 313 316 315 311 299 293 289 290 289 291 288 292 292 295 296 297 297 299 301 300 307 310 310 309 309 308 310 310 313 306 317 319 326 335 335 337 339 342 341 343 345 347 347 348 348 347 348 347 347 346 346 346 345 343 342 342 340 340 340 340 341 341 341 342 343 345 345 345 342 339 338 337 340 340 340 340 341 341 341 342 342 342 340 341 341 341 339 340 340 339 338 337 337 337
318 315 319 315 315 308 304 301 300 285 288 289 288 290 292 294 294 295 297 295 297 305 307 309 306 304 306 306 306 304 305 320 313 322 326 334 329 331 336 341 343 344 343 345 346 347 348 347 345 348 348 347 346 346 343 342 342 342 342 342 341 341 340 340 340 341 344 346 346 346 343 339 339 338 338 339 338 339 340 340 339 339 340 340 340 342 342 343 343 342 342 341 341 339 339 339 338
317 316 316 314 313 305 299 293 291 289 289 287 285 290 290 294 294 295 295 295 306 301 300 304 307 304 306 302 304 312 314 317 322 324 325 329 331 335 337 341 344 343 344 344 345 346 348 346 345 348 347 347 346 346 346 344 344 343 342 342 341 341 341 341 340 341 342 342 345 344 342 339 338 339 339 339 337 338 338 340 339 339 339 339 341 342 342 342 342 341 341 340 340 339 339 339 338
317 318 312 310 307 305 296 290 288 288 291 286 290 290 292 291 296 293 299 299 304 297 298 301 306 309 309 309 309 307 306 320 324 327 328 332 337 337 340 342 342 342 342 343 345 346 348 343 345 347 347 346 346 346 345 345 344 343 342 342 342 341 340 340 340 339 341 343 344 344 343 340 339 339 339 338 338 339 340 341 340 340 340 342 343 343 341 341 340 342 341 339 339 339 338 338 339
312 312 311 312 307 304 297 293 292 292 292 289 291 293 291 293 296 296 300 297 298 296 298 301 306 307 310 313 311 312 313 319 325 325 329 332 337 338 340 341 341 341 342 343 344 346 348 342 344 346 347 347 347 346 345 344 343 343 343 342 342 342 341 342 341 341 343 343 343 344 344 341 339 339 339 338 339 339 339 339 340 339 340 344 343 343 341 340 340 341 341 341 341 341 339 339 340
315 306 305 307 302 301 296 290 288 287 291 290 296 292 294 293 295 298 298 300 298 298 294 302 304 306 307 307 315 317 319 323 325 326 332 334 338 338 341 341 341 341 342 343 344 346 347 342 346 347 347 347 347 346 345 344 343 344 343 342 342 342 342 342 340 343 344 344 344 344 344 342 340 339 339 338 338 339 338 338 338 338 338 341 341 341 342 342 341 342 341 341 341 340 340 339 339
313 312 305 299 295 293 289 287 288 287 294 289 293 293 293 295 294 300 298 298 298 299 301 300 298 302 301 309 313 318 317 319 326 324 329 337 338 338 340 341 340 340 342 344 345 346 345 341 345 347 347 347 346 346 345 345 344 344 343 343 342 342 342 341 338 341 343 343 344 344 344 342 340 339 338 338 338 337 337 338 337 338 338 339 340 341 340 340 341 342 340 340 340 339 338 339 339
307 306 302 300 292 289 286 290 290 288 289 289 291 292 301 294 295 299 296 295 297 297 303 305 299 300 299 310 309 317 321 322 324 325 335 337 337 338 340 340 339 339 341 343 345 346 346 339 343 346 346 347 346 346 346 345 345 344 343 343 342 342 342 341 340 340 342 342 344 343 343 341 339 339 339 338 338 337 336 336 336 337 338 338 338 339 339 339 340 340 340 340 339 338 338 337 338
306 305 299 296 291 293 285 288 291 293 291 292 294 296 294 293 294 296 296 295 297 298 304 296 297 298 302 308 311 318 323 320 327 333 337 337 337 337 338 339 340 340 340 342 344 345 345 344 340 343 344 346 346 346 346 345 344 344 343 343 343 343 342 342 341 341 340 340 342 343 342 341 339 339 338 338 337 337 337 336 336 335 336 337 337 337 337 339 339 339 340 339 338 337 337 337 337
301 299 299 296 286 287 290 290 286 288 293 291 291 292 293 293 294 292 294 297 294 300 299 297 302 301 306 307 311 318 316 322 331 331 336 337 337 336 337 339 340 341 340 341 343 344 345 346 342 340 341 343 345 346 346 345 345 344 343 343 342 342 341 341 341 341 340 340 340 341 341 342 341 339 337 336 336 336 335 335 335 336 336 336 336 336 337 339 339 339 339 338 337 337 337 337 336
299 298 296 288 288 290 288 288 289 288 290 291 296 295 294 293 294 295 294 298 296 296 300 299 303 305 303 301 310 316 315 326 331 335 336 338 336 337 337 338 339 340 341 341 343 343 345 346 346 342 338 340 341 343 344 344 344 344 343 343 342 342 342 341 341 341 340 340 339 339 340 340 340 339 337 336 337 337 335 335 335 336 336 336 335 338 339 338 337 337 337 336 336 336 336 336 336
298 296 293 292 291 289 286 288 292 294 288 292 296 295 293 295 297 295 293 294 294 296 298 298 301 303 300 303 308 309 321 327 330 335 337 337 336 337 337 338 338 339 340 341 341 342 344 345 345 345 340 334 336 338 339 340 342 343 343 342 342 343 342 341 341 340 339 339 338 340 340 340 339 338 336 336 338 338 334 335 335 335 335 335 337 338 336 336 336 336 336 336 335 335 336 335 335
298 296 296 293 286 286 287 289 287 293 291 295 291 292 293 296 296 292 295 297 294 297 299 296 305 302 302 299 303 310 321 324 329 334 336 336 336 336 336 337 338 338 339 340 340 342 343 344 344 344 343 343 345 338 334 336 339 341 341 341 341 341 341 341 341 340 341 340 338 336 336 336 336 337 337 337 337 336 336 336 335 335 334 334 335 335 335 336 336 335 335 335 335 335 335 335 334
303 295 291 288 285 289 287 291 290 287 294 291 294 293 293 296 291 291 298 295 296 296 298 301 305 299 296 297 295 308 321 324 330 333 335 335 336 336 336 336 336 337 338 339 340 341 343 344 344 344 343 343 344 344 344 341 334 336 338 337 338 339 339 338 337 336 335 335 334 332 332 330 330 330 331 332 333 332 332 332 335 335 333 334 334 335 335 335 335 335 334 334 334 334 334 333 332
300 295 291 290 289 288 290 287 283 289 292 291 293 291 295 294 291 295 295 297 297 298 299 303 304 300 299 299 307 302 318 324 330 332 334 334 335 336 335 335 335 336 337 339 339 341 343 343 343 343 343 343 342 342 342 343 334 332 335 336 336 336 335 334 333 332 328 327 327 327 326 328 326 327 324 329 326 328 328 330 331 334 333 334 334 334 334 334 333 334 334 334 334 333 331 330 329
299 298 292 287 290 288 290 289 289 291 291 290 290 293 297 295 293 293 293 296 298 298 298 303 303 310 298 300 309 312 317 326 329 332 333 332 333 333 333 334 334 334 336 337 338 340 342 342 343 342 343 343 342 341 342 342 338 331 332 330 330 331 331 330 327 323 321 321 322 321 323 329 329 329 330 330 322 329 320 324 329 333 333 334 334 334 333 332 332 333 333 331 329 327 323 324 324
299 295 289 290 287 287 290 291 291 291 292 292 290 292 296 293 294 297 296 297 294 296 300 299 304 309 312 313 313 312 320 326 329 330 330 330 332 331 330 331 331 331 333 335 338 339 341 342 342 342 342 342 342 341 341 341 339 336 339 338 338 333 328 325 329 331 326 330 321 326 328 327 327 328 329 326 330 329 327 322 325 329 333 332 332 332 332 331 331 330 329 327 325 322 318 322 321
293 289 291 292 287 290 292 291 293 292 296 292 292 289 294 295 294 295 296 294 294 297 297 296 302 303 308 313 311 316 323 326 329 330 329 329 330 329 330 330 330 331 331 335 336 338 340 341 342 341 341 341 341 341 340 340 340 339 338 337 335 329 330 330 330 329 329 328 328 327 325 326 326 327 327 326 325 319 325 322 324 327 329 329 330 331 330 329 329 328 326 323 321 318 319 319 320
294 294 293 288 291 291 290 291 293 290 292 292 292 290 292 294 294 294 297 293 292 295 295 296 298 300 306 310 313 320 324 326 329 330 329 329 330 330 330 330 330 331 332 334 335 339 340 340 341 342 341 341 341 340 340 340 339 339 337 336 335 333 331 330 330 329 328 327 327 326 326 325 326 327 322 320 320 324 322 318 318 319 320 320 322 326 327 326 324 322 320 318 316 317 318 318 318
296 292 289 294 290 294 293 289 290 289 291 291 291 289 292 293 292 295 292 295 294 293 293 299 298 299 304 311 317 321 324 325 328 329 329 330 331 332 332 332 332 333 334 336 336 337 338 339 340 340 341 341 340 339 339 339 339 339 337 335 334 332 330 329 329 328 327 326 325 325 325 325 325 325 325 325 323 321 321 321 321 321 320 320 317 318 317 315 316 316 315 314 316 316 317 317 318
292 293 292 291 289 293 292 288 289 288 289 291 288 294 293 292 294 292 294 294 294 296 298 296 298 299 307 312 317 322 323 324 327 327 328 329 330 331 333 333 335 336 335 333 334 336 338 339 340 340 340 340 340 339 339 338 339 338 336 334 332 330 330 328 328 327 326 325 324 324 324 324 324 324 324 323 321 320 318 317 317 317 317 316 315 315 314 314 314 314 314 313 313 314 314 315 316
297 292 288 289 289 293 291 289 289 288 290 291 290 293 292 293 293 289 292 296 294 293 294 294 295 301 310 315 319 321 322 324 326 326 328 328 329 331 332 333 333 333 334 334 335 335 337 338 339 340 339 340 339 340 339 338 339 339 337 334 332 329 329 327 326 325 326 324 323 323 324 323 323 323 322 322 320 318 315 314 314 314 314 313 313 313 312 312 313 312 312 312 312 312 312 313 313
290 293 289 292 289 292 289 290 288 287 291 292 292 291 293 291 295 291 291 294 293 292 290 291 291 311 314 315 319 321 322 324 325 327 328 328 329 330 332 333 334 334 334 334 335 335 335 337 338 339 338 339 339 339 338 338 339 339 337 333 332 328 328 327 325 325 324 323 322 323 323 324 323 322 322 321 319 316 313 312 311 312 312 312 312 312 311 311 311 311 311 311 311 311 311 311 312
293 291 290 290 289 290 288 286 287 287 290 289 291 294 292 290 291 290 291 295 295 292 297 302 308 311 313 315 317 320 321 323 324 326 326 327 328 329 330 332 332 333 333 334 335 335 335 336 338 338 338 338 339 339 338 338 338 339 336 334 333 326 329 328 326 324 323 323 322 322 323 323 322 322 321 320 318 315 311 310 311 310 310 310 311 311 311 310 310 310 310 310 310 310 310 310 311
291 292 289 290 291 290 289 288 288 288 290 289 293 291 290 289 291 292 294 292 290 292 301 305 307 309 310 314 317 319 319 321 323 323 324 325 322 326 328 329 331 331 333 334 335 335 336 336 336 337 337 337 338 339 338 338 338 338 337 334 334 327 330 327 325 324 324 323 322 321 322 323 322 322 321 319 318 313 310 309 309 309 309 309 311 310 310 310 309 309 309 309 309 309 309 309 310
289 289 289 291 290 290 290 291 290 288 290 288 291 291 291 291 291 291 291 290 289 298 299 302 307 308 310 312 315 317 318 319 321 323 319 320 320 324 326 328 329 331 333 333 334 335 335 335 336 336 337 336 338 337 338 338 337 337 336 336 334 330 330 326 325 324 323 323 322 321 321 321 321 321 320 319 318 312 310 309 308 308 308 309 310 309 309 309 309 309 309 308 308 308 307 307 309
290 290 290 290 287 289 289 290 289 290 293 288 291 291 291 291 291 292 292 290 290 296 299 302 302 306 309 310 312 315 316 318 317 318 320 320 321 322 324 326 328 330 331 332 334 336 336 335 336 336 336 336 336 336 337 337 337 337 338 336 334 332 329 326 325 324 321 322 322 320 320 320 320 320 319 319 317 313 310 309 307 307 308 307 308 308 308 308 308 307 307 306 306 306 305 306 307
289 291 290 289 286 290 290 292 290 290 293 291 290 292 291 290 291 291 288 287 293 295 298 301 302 302 303 306 308 311 314 314 314 317 320 322 323 323 323 326 328 328 331 333 333 334 335 335 335 336 337 336 335 336 336 337 337 336 336 337 334 332 330 327 325 323 323 322 321 320 319 319 318 318 318 317 315 312 310 308 306 307 307 307 307 307 307 306 306 305 304 304 304 304 304 304 304
290 289 287 287 288 287 291 288 289 292 292 289 290 288 286 289 293 292 289 286 290 294 294 296 300 299 300 301 306 309 310 310 312 316 318 320 321 322 322 324 325 327 329 331 332 332 334 336 336 336 336 336 335 336 336 336 336 336 336 337 335 333 332 329 326 324 323 322 321 320 320 319 318 318 316 316 316 313 309 308 306 305 305 306 306 306 306 306 305 305 303 304 303 304 304 303 304
291 288 285 283 287 285 288 289 289 293 291 287 291 288 284 283 285 288 287 287 292 292 293 293 293 295 296 298 302 307 309 311 314 315 316 317 318 319 320 321 322 324 325 327 330 332 333 334 335 336 335 336 333 335 335 336 335 335 335 336 336 334 333 331 329 326 323 323 322 321 320 319 318 318 317 316 315 314 310 308 306 305 304 304 304 305 306 306 305 304 303 303 303 302 302 302 303
282 287 285 284 285 286 286 288 287 291 292 288 290 286 288 289 288 285 286 288 289 291 291 290 289 291 292 293 296 300 305 308 310 311 314 315 316 317 318 319 320 321 323 325 328 330 331 333 334 334 335 335 335 334 335 336 336 336 336 331 336 335 334 333 331 328 326 325 324 323 322 321 319 319 316 316 315 314 311 309 308 305 304 303 305 305 305 305 304 303 304 303 302 301 301 300 301
282 283 281 284 283 283 285 290 286 289 291 290 289 287 284 290 290 290 287 288 288 289 290 289 288 288 289 292 293 295 297 299 301 305 310 312 314 316 318 318 318 320 322 323 324 326 328 331 331 333 333 334 335 335 335 335 335 336 336 336 336 336 335 334 332 330 329 326 325 324 322 321 320 320 317 315 315 314 313 311 309 306 304 304 304 304 305 305 303 302 302 303 303 300 300 299 299
287 281 282 281 283 283 284 287 289 289 290 290 288 288 285 288 288 286 286 289 289 290 290 290 290 290 291 291 292 293 294 296 297 299 302 307 312 314 317 316 318 319 319 321 322 324 326 328 330 331 332 333 334 335 335 335 334 334 335 336 333 335 335 335 334 332 330 327 325 324 322 321 319 320 318 316 315 314 313 311 309 305 304 305 305 305 305 304 304 304 302 303 303 301 300 298 297
283 284 282 284 282 281 283 286 288 289 288 289 288 287 290 291 292 292 290 288 289 291 291 292 291 291 291 291 290 291 293 294 297 299 299 300 305 310 314 316 317 317 318 319 320 321 323 324 326 327 329 331 333 333 333 334 334 334 333 331 332 333 334 334 334 333 331 329 327 326 324 322 319 320 319 317 314 313 313 311 309 305 304 304 304 304 303 303 304 304 303 301 301 300 299 299 297
286 286 284 282 284 284 283 283 283 288 288 288 285 288 288 289 291 292 291 289 289 290 289 289 290 290 290 291 292 292 293 294 297 297 297 297 299 302 307 311 314 315 316 317 317 319 319 321 322 325 327 330 331 332 331 330 330 330 330 330 330 331 333 331 333 334 333 330 329 327 326 324 322 320 320 318 316 314 312 311 309 305 304 304 303 302 302 303 303 302 302 300 298 297 297 296 295
285 283 281 282 281 283 282 283 287 285 288 287 286 285 284 288 290 292 293 290 289 290 291 292 293 293 293 293 292 293 293 295 298 296 297 297 297 297 301 305 309 311 313 314 316 317 318 319 319 321 324 327 328 328 328 328 326 326 327 328 328 330 330 331 331 332 334 332 330 327 326 325 324 321 320 319 316 313 311 309 306 305 305 304 304 303 304 304 304 303 301 299 297 295 293 294 295
286 284 284 282 283 284 285 287 286 285 288 285 281 284 287 288 290 291 291 289 290 291 291 291 292 292 292 293 293 293 294 294 294 296 296 294 294 295 296 298 302 305 308 311 314 316 317 318 318 320 321 323 326 328 328 327 328 328 327 327 328 328 327 326 328 328 330 332 331 328 327 327 326 322 320 320 317 315 310 308 306 304 304 304 305 306 306 303 304 303 300 298 298 297 294 293 294
281 284 282 283 282 281 285 285 286 285 287 284 282 286 289 290 291 292 291 292 292 292 292 293 293 293 292 292 292 292 292 294 293 293 293 293 294 294 295 296 298 303 306 308 312 314 315 317 318 319 319 321 324 326 327 327 328 329 328 327 328 324 323 327 329 327 326 329 330 329 328 328 327 325 322 320 318 314 311 308 307 306 305 304 304 304 303 303 304 302 300 299 296 297 296 295 295
281 281 282 282 282 286 285 285 286 285 285 287 285 285 289 288 286 288 291 290 289 288 288 290 290 292 294 294 292 292 292 292 293 293 293 293 293 294 293 295 297 299 301 305 308 310 313 315 317 318 318 319 321 324 324 327 327 324 322 322 321 323 320 315 318 318 319 323 326 327 327 329 329 328 324 321 319 317 313 309 308 307 305 304 304 304 303 303 303 302 301 300 298 294 293 293 295
283 283 281 282 284 283 281 285 284 282 284 283 284 286 287 281 284 286 282 283 283 285 284 285 288 290 291 291 291 292 292 294 294 294 294 293 292 293 294 295 296 297 299 302 306 309 311 313 316 317 318 318 319 320 322 322 319 317 314 313 314 312 312 314 315 317 319 319 321 323 325 324 327 328 326 323 321 319 315 311 309 307 306 305 305 304 303 303 303 303 301 300 298 298 295 295 295
285 283 283 283 284 284 283 284 284 280 285 282 282 283 278 279 280 282 284 283 286 284 287 289 288 287 286 287 290 291 292 293 294 295 295 294 293 293 292 293 295 297 299 301 304 308 310 312 313 315 316 316 317 318 320 320 320 319 315 316 314 314 315 314 315 318 318 318 320 324 322 323 323 323 324 325 323 320 316 312 310 308 307 306 305 305 305 304 304 303 302 301 299 301 299 295 294
284 286 284 283 284 284 283 283 283 281 281 283 280 282 277 279 283 284 281 282 286 288 286 288 287 287 286 287 288 288 289 290 289 290 291 292 293 291 292 292 294 296 299 301 303 306 308 310 312 314 315 315 315 316 317 318 319 319 319 320 320 318 318 318 319 318 321 321 322 322 323 323 323 325 323 323 323 321 318 314 311 310 309 308 305 305 304 303 303 302 302 302 301 302 301 296 296
285 283 282 284 285 285 283 283 283 280 281 285 279 278 279 280 284 283 281 282 286 286 289 287 286 285 285 285 287 288 289 289 288 289 290 290 291 291 293 293 293 296 298 300 303 304 307 309 311 312 313 313 314 314 315 318 319 318 318 319 319 319 319 320 318 318 316 316 317 319 320 321 321 321 322 322 322 322 320 317 313 310 308 306 304 304 304 304 304 303 303 302 302 301 301 300 298
284 283 284 284 285 283 281 282 280 280 282 282 278 283 281 278 282 282 281 287 284 286 288 287 287 286 286 288 289 289 289 290 288 288 289 290 291 291 292 293 294 295 296 300 302 304 306 307 309 310 311 311 311 312 314 315 317 318 318 318 317 318 319 316 310 311 313 310 314 314 315 317 318 317 317 318 318 319 318 317 315 312 309 307 305 306 306 306 305 304 302 301 301 301 301 301 301
285 283 283 282 281 281 281 279 282 278 278 274 280 280 277 279 280 280 280 285 285 288 288 286 285 286 287 288 290 290 289 291 290 286 287 288 290 291 293 293 295 296 296 298 299 301 304 306 307 308 308 310 310 311 313 313 315 315 316 315 316 316 313 309 308 308 309 305 310 311 312 314 315 315 315 316 316 316 316 315 315 313 310 309 305 306 306 305 305 304 303 302 301 301 301 300 300
286 285 287 284 281 280 278 277 277 277 275 276 277 277 279 277 281 282 285 285 284 284 284 285 283 286 288 288 289 289 289 290 290 290 290 291 291 291 291 294 295 296 296 298 300 302 303 305 306 308 307 307 307 310 311 312 313 313 315 314 314 315 312 311 307 306 303 301 306 308 308 310 312 313 315 315 314 315 316 313 314 314 312 308 306 306 305 305 305 305 304 303 301 301 301 300 299
286 284 282 286 283 279 278 274 276 273 269 272 277 278 278 276 277 281 282 282 281 286 289 290 287 288 289 290 290 289 288 288 289 289 292 291 293 294 293 295 294 296 296 298 298 299 302 303 305 306 302 305 306 308 309 311 311 311 312 313 313 314 313 310 310 311 307 307 307 307 305 305 306 309 311 312 312 313 314 315 313 313 312 311 309 307 306 306 305 305 304 303 302 302 302 300 300
284 283 286 280 273 271 275 269 276 274 271 279 277 277 278 279 282 284 283 285 286 283 285 286 289 289 290 290 290 289 288 287 288 290 291 291 291 292 293 293 295 296 297 297 297 298 299 301 303 305 302 303 304 306 307 308 309 310 310 311 311 312 311 311 310 310 309 308 307 306 304 304 304 304 305 308 310 312 313 313 313 312 313 312 311 309 308 307 306 305 304 303 302 301 301 300 300
283 286 280 276 271 268 268 264 264 269 274 277 278 279 278 280 282 287 289 292 287 284 284 285 286 288 290 291 289 288 288 287 288 289 290 290 291 292 291 292 292 293 295 296 296 297 298 300 301 304 304 301 302 303 305 306 307 309 309 309 310 309 309 309 309 309 309 308 308 307 306 306 305 305 306 306 309 311 311 313 313 313 313 312 310 309 308 307 306 305 303 302 302 301 301 301 300
284 283 285 282 272 269 269 267 273 274 274 275 276 276 275 278 288 284 286 288 287 285 285 283 284 285 286 286 286 286 286 288 288 289 291 292 292 291 292 291 291 292 292 294 295 296 296 299 299 301 301 299 300 302 302 304 305 305 306 307 307 307 308 308 308 308 308 307 306 306 306 306 306 306 305 306 306 307 309 310 311 312 311 311 310 309 307 307 306 305 304 303 303 302 301 300 300
282 280 282 282 279 277 271 267 268 266 271 272 274 276 278 282 285 286 286 285 286 285 285 284 285 285 284 286 287 287 287 288 288 289 291 292 291 291 291 291 291 291 292 292 294 295 296 298 298 300 301 300 300 300 301 302 303 303 303 304 305 305 305 305 305 305 305 306 306 305 306 305 305 306 304 304 303 304 306 306 308 309 310 311 310 309 308 306 305 305 304 303 302 303 301 300 300
285 283 278 281 281 280 272 269 272 272 270 272 270 278 281 281 285 289 283 284 286 286 285 285 285 284 283 285 287 287 287 287 288 289 290 290 290 291 291 291 291 291 292 294 295 296 297 297 297 298 298 298 299 301 302 302 302 301 302 302 302 302 303 304 305 305 304 304 305 305 305 305 304 303 304 303 303 302 304 305 305 306 307 308 309 309 308 307 305 304 303 303 302 302 301 300 300
284 279 283 283 283 282 279 275 268 266 270 273 272 275 278 277 281 283 282 285 286 285 285 284 283 283 286 289 287 286 287 287 286 286 287 288 289 290 291 291 291 292 292 293 294 294 295 296 297 298 298 298 299 299 299 300 300 300 301 301 301 302 303 303 304 304 303 303 302 302 302 302 302 302 302 302 302 302 302 301 304 304 305 306 306 307 307 307 305 304 303 303 303 302 301 300 300
284 282 286 285 280 278 277 274 270 268 267 268 271 273 273 278 281 281 283 286 285 284 283 286 290 288 288 288 286 286 286 287 288 289 290 290 290 290 291 292 292 291 292 293 293 293 295 295 295 296 298 298 299 298 298 298 299 301 301 301 301 301 301 302 302 302 301 301 302 301 301 302 301 301 300 300 300 301 301 301 302 302 303 304 305 305 306 306 305 304 304 303 303 302 301 300 300
285 285 283 284 280 277 275 276 272 274 268 265 270 267 278 278 280 281 286 281 283 284 285 287 284 284 285 284 285 287 288 289 288 288 289 289 290 291 291 292 293 293 292 292 292 292 294 295 295 296 296 295 295 296 296 297 298 298 299 299 299 300 300 301 301 301 301 301 301 301 300 300 301 300 300 300 300 300 300 300 300 301 302 302 303 304 305 305 304 304 304 302 301 301 300 299 298
282 282 281 285 279 282 280 277 274 275 266 264 264 269 273 278 280 281 285 284 281 283 287 286 286 285 284 284 289 292 291 288 288 288 289 290 290 291 292 290 290 290 291 291 292 293 294 293 294 295 296 297 296 296 295 297 296 297 297 298 299 298 298 299 299 299 300 300 300 299 300 300 299 298 298 298 298 299 299 299 300 300 300 301 301 302 303 304 303 302 302 302 301 301 299 298 298
285 284 283 285 281 279 277 278 276 267 271 267 263 273 273 280 280 285 284 283 283 282 284 286 289 289 289 290 288 287 294 291 287 289 289 291 292 293 293 292 290 291 292 292 292 291 292 293 294 294 294 295 296 296 296 296 295 296 296 297 297 297 297 297 297 297 298 298 298 298 298 297 298 299 297 298 298 298 298 298 299 299 299 300 301 302 302 302 302 301 301 301 301 298 298 298 298
Wind_Speed
6 5 3 2 3 3 2 7 2 3 3 0 1 1 1 0 2 3 0 1 3 2 3 3 8 7 4 4 7 4 2 8 6 6 3 0 3 5 5 4 10 10 9 6 3 5 7 9 11 12 13 11 11 11 11 11 11 12 12 12 11 12 13 13 13 14 14 14 18 17 18 17 16 15 15 17 16 18 17 15 15 15 16 18 20 19 19 19 20 19 19 19 19 18 18 19 19
4 5 2 1 2 1 1 2 5 3 6 3 3 1 2 2 2 6 9 6 3 2 4 5 5 6 6 4 5 5 3 3 4 2 1 2 4 8 2 8 11 12 9 7 5 5 5 9 10 12 12 12 11 11 11 11 11 11 11 12 11 11 11 13 13 14 13 14 13 16 18 17 15 15 14 17 17 17 17 16 16 17 17 18 18 17 18 19 19 19 18 18 19 19 19 19 18
3 6 0 3 3 4 3 4 2 1 3 1 3 6 2 4 5 5 7 2 2 1 5 6 4 3 1 1 1 1 2 2 1 3 3 6 10 6 5 8 10 12 11 8 8 5 4 7 9 12 13 12 12 11 11 11 11 11 11 11 11 11 12 12 13 13 15 14 15 17 18 17 16 15 14 16 16 16 16 15 15 15 16 16 17 18 18 18 19 18 18 18 18 18 19 18 19
2 5 2 3 1 3 1 5 4 6 2 3 2 3 6 6 6 7 5 1 6 5 3 4 5 1 1 2 1 2 1 1 3 4 5 8 2 8 8 10 11 11 9 8 9 4 4 7 10 11 12 12 12 11 10 11 11 11 11 11 11 11 9 11 13 13 11 13 14 15 16 17 16 15 14 15 16 15 16 15 15 15 14 15 16 17 17 18 17 17 17 19 20 19 19 19 18
1 2 2 2 4 1 4 1 4 3 2 5 1 3 6 6 5 5 3 5 4 1 2 3 4 3 0 2 3 1 1 2 1 5 1 3 2 8 8 13 13 11 9 10 9 4 5 9 9 10 12 12 11 11 11 11 11 11 11 10 11 10 10 12 12 12 12 12 12 14 17 16 15 14 13 16 15 16 15 15 14 13 14 15 16 18 18 17 18 19 19 19 19 18 18 18 18
3 2 4 2 1 3 5 2 3 1 4 7 1 2 7 8 8 7 6 5 3 2 1 3 2 5 1 2 2 1 3 2 4 4 3 6 7 9 12 10 11 10 10 9 8 4 4 8 9 10 12 12 11 11 11 10 10 11 11 11 10 10 10 11 12 13 13 12 12 15 14 16 15 14 13 14 16 15 15 14 14 12 15 16 16 18 18 17 17 18 19 18 19 18 17 17 17
1 3 5 3 3 3 3 3 4 4 2 5 0 1 8 7 5 10 4 2 1 2 3 2 2 3 4 3 1 3 1 2 4 3 5 6 8 11 11 10 11 11 11 9 8 6 6 8 9 10 10 11 11 11 11 11 10 10 10 11 10 10 10 11 10 14 14 13 14 14 15 16 15 13 12 12 14 15 14 13 13 12 12 15 15 17 18 17 17 18 18 18 18 17 17 17 17
2 1 2 3 1 3 3 2 1 5 1 5 0 2 4 8 7 6 8 3 3 3 2 2 1 2 1 0 3 1 2 3 2 1 2 7 9 10 11 11 11 12 10 9 9 6 7 7 8 9 11 12 11 11 11 11 10 10 10 10 10 10 11 11 10 12 12 13 14 14 14 15 14 14 12 11 12 14 14 13 13 13 12 13 15 15 15 16 17 17 17 17 17 17 17 17 17
5 6 0 4 3 4 3 1 1 3 6 3 6 5 3 6 6 9 6 2 1 0 2 3 4 1 3 2 2 2 2 2 2 3 7 9 10 11 9 12 12 11 11 10 8 8 8 6 7 9 10 11 11 11 11 11 10 10 10 10 10 10 11 10 10 11 12 13 13 14 14 14 13 13 13 11 12 13 13 13 13 13 13 13 14 15 15 15 16 16 16 16 16 16 16 16 17
2 1 1 2 4 1 2 1 1 2 1 2 2 1 5 6 5 3 8 1 2 3 3 1 1 1 3 3 0 2 2 4 2 7 9 10 10 11 9 11 11 12 11 10 9 8 7 7 6 8 9 10 10 10 10 10 10 10 10 10 11 10 10 10 10 11 11 11 13 13 12 13 13 12 12 11 11 12 12 13 12 12 12 13 13 13 14 15 15 16 16 16 16 16 16 15 16
1 5 2 3 4 2 1 1 4 3 1 5 6 6 5 4 5 5 1 2 1 3 1 1 1 4 2 1 2 2 4 1 8 9 10 11 10 11 9 9 11 11 11 11 9 8 7 7 7 7 7 9 9 9 9 9 10 10 9 10 10 10 10 10 10 10 10 10 11 11 11 12 12 12 12 11 10 10 11 12 12 11 12 12 12 12 14 14 14 15 15 15 15 15 15 15 16
1 1 2 4 1 3 2 2 1 5 6 2 1 1 4 7 4 3 2 5 3 1 4 6 1 8 3 3 2 1 4 4 7 8 10 10 9 9 8 7 10 10 10 10 9 8 8 6 6 6 6 7 8 9 8 8 9 8 9 9 10 9 10 10 10 10 10 9 9 9 10 11 12 12 12 11 9 9 11 12 11 11 11 11 12 14 14 14 14 14 14 13 14 14 14 15 15
1 1 5 5 1 1 2 1 0 2 4 3 4 1 5 5 4 5 5 2 2 5 3 9 2 1 2 4 2 5 2 6 5 7 9 10 8 8 7 7 9 9 10 9 9 8 8 5 6 6 5 7 7 8 8 7 8 8 8 9 9 8 9 10 10 9 10 10 10 9 9 9 9 9 10 9 6 7 11 12 11 10 11 12 13 13 13 13 13 14 14 13 13 14 14 14 15
3 5 4 1 2 4 3 1 1 2 2 2 2 2 5 3 3 6 8 5 3 4 1 2 3 3 1 2 1 2 4 6 7 7 7 8 7 8 8 7 8 8 9 9 10 9 7 6 7 5 5 6 7 7 7 7 7 8 8 8 7 7 8 9 8 7 8 9 10 10 9 10 10 9 8 7 7 10 14 11 11 10 10 11 12 13 13 14 14 13 13 13 13 13 14 14 15
2 2 6 5 2 1 2 2 4 4 3 2 3 7 4 2 5 4 6 5 6 2 1 0 2 2 4 7 3 6 6 7 8 7 8 8 8 9 8 7 7 7 8 9 9 8 7 6 6 5 5 5 7 5 4 5 7 7 8 8 7 7 7 8 8 9 10 10 11 10 10 10 10 10 9 8 9 9 10 11 10 8 11 11 12 13 14 13 13 13 13 13 14 14 15 15 16
5 5 4 3 0 3 2 2 1 4 3 5 1 2 4 1 2 5 5 1 1 1 0 3 1 1 1 4 0 4 5 8 8 8 9 9 8 7 7 7 6 7 7 8 8 8 8 7 6 5 6 6 6 6 5 6 6 8 8 7 8 8 8 8 9 9 10 10 10 11 10 9 9 8 10 8 10 10 9 9 10 8 10 11 12 14 14 13 13 13 14 14 15 15 15 16 15
2 3 2 3 1 2 2 2 6 2 3 5 1 4 6 2 1 2 1 0 5 2 1 1 1 1 3 1 1 3 1 8 9 9 9 8 9 7 6 6 6 6 6 8 8 8 9 8 8 6 7 7 6 6 6 6 6 7 6 7 8 8 8 10 10 10 10 9 8 9 8 6 5 5 6 5 7 7 9 10 9 8 9 10 12 13 13 13 13 13 13 14 15 14 13 14 13
1 2 6 2 2 3 7 7 10 1 4 4 5 7 6 3 1 1 2 5 3 1 1 3 2 4 2 3 3 4 3 10 10 11 9 8 9 9 7 7 7 7 7 8 9 9 9 8 9 7 7 7 6 6 5 5 5 6 5 5 6 7 7 8 7 6 6 6 8 6 4 4 4 4 5 5 5 6 8 11 10 9 8 7 11 13 13 12 12 13 14 15 13 12 10 7 8
4 2 2 4 5 4 8 5 6 2 1 5 4 3 4 4 7 3 2 0 1 1 2 2 3 3 2 2 2 4 8 10 11 11 12 12 13 12 9 8 7 8 8 9 8 10 8 8 8 9 7 7 7 7 5 5 6 6 6 6 5 6 6 7 5 6 4 5 5 5 4 3 3 4 4 5 6 9 9 10 10 9 8 8 10 12 13 12 12 13 14 13 13 10 6 5 5
1 4 2 3 8 2 4 4 6 3 4 7 6 3 3 0 3 1 2 3 1 5 5 2 3 6 7 1 5 8 9 10 10 12 13 12 13 12 11 10 9 9 9 9 9 7 8 8 8 8 9 8 7 6 5 5 5 6 6 6 6 5 5 6 6 6 5 4 4 4 4 4 4 3 6 10 9 6 7 10 11 11 11 10 11 9 10 11 12 12 12 10 7 5 5 4 4
1 2 4 2 5 2 1 6 4 3 1 6 5 3 2 1 3 3 4 5 3 6 8 9 11 10 9 5 10 10 11 11 11 11 10 12 11 10 10 10 8 7 7 7 6 8 9 8 8 7 8 7 7 6 6 6 6 6 6 6 6 5 5 5 5 6 5 5 4 4 4 4 4 4 3 3 4 5 5 4 4 4 4 5 8 6 4 4 3 4 5 5 4 4 5 4 4
4 0 0 2 2 2 0 5 2 2 1 8 5 9 6 2 1 3 8 6 6 8 6 10 7 6 12 11 12 10 11 12 12 12 13 13 13 13 10 9 8 6 5 7 10 7 10 9 8 7 9 8 8 7 6 5 7 6 6 6 7 5 5 5 5 6 6 4 4 4 4 4 4 4 4 3 4 4 4 4 4 3 4 4 3 4 3 3 3 4 4 4 4 3 4 4 3
2 1 1 3 1 2 1 1 3 4 3 6 7 4 4 4 1 1 5 9 3 5 1 5 5 7 6 9 14 12 12 13 14 15 14 13 14 13 12 10 10 10 7 8 8 7 6 9 9 7 8 8 8 7 6 5 6 5 6 6 6 6 5 5 5 5 5 5 4 5 6 5 4 4 4 4 4 3 4 3 4 3 4 4 2 4 4 3 3 4 4 4 4 4 4 4 4
3 3 1 1 1 2 2 1 2 2 8 6 3 3 3 4 5 1 3 7 2 1 2 4 3 6 10 13 15 18 17 16 17 17 16 17 16 14 11 10 8 7 7 9 8 7 7 8 8 9 8 8 8 8 8 7 5 6 6 7 7 6 6 6 5 5 5 5 4 4 4 5 5 5 4 4 4 3 3 3 3 4 4 3 3 2 4 3 4 4 4 5 4 4 4 4 4
2 1 2 1 1 0 1 1 3 2 1 1 3 6 0 4 2 2 7 9 7 3 3 4 6 7 8 10 15 15 15 14 13 12 9 8 9 8 8 7 6 8 10 10 9 9 9 8 9 9 9 10 7 8 9 6 6 7 6 7 6 8 5 6 7 6 6 6 4 4 5 5 4 4 5 4 4 4 3 3 3 3 4 3 3 3 3 4 4 4 4 4 4 4 4 4 3
2 2 4 2 2 1 1 6 3 3 2 1 5 1 1 2 1 3 9 5 3 2 3 5 6 7 8 11 15 15 14 16 13 11 14 9 5 9 11 10 9 10 12 10 9 10 9 9 9 11 10 8 8 7 8 8 7 6 7 7 6 7 6 6 7 6 6 7 5 4 4 4 5 6 5 4 5 5 4 3 3 3 4 3 3 4 2 3 4 4 4 4 4 4 4 3 3
4 5 3 6 1 0 3 4 1 1 2 1 4 1 2 1 1 6 2 1 5 3 4 2 7 9 9 9 10 11 13 15 16 11 4 7 8 11 11 10 11 14 10 11 10 9 9 10 11 11 12 8 8 7 6 8 8 8 5 8 7 7 6 6 6 5 6 7 5 5 4 4 4 4 5 6 4 5 4 4 4 3 3 3 3 3 3 3 4 4 4 4 4 4 4 3 3
5 10 5 7 3 5 1 4 3 1 2 2 4 2 0 1 1 7 1 5 2 4 4 5 5 7 8 8 8 8 9 7 5 8 14 12 13 12 13 13 15 13 13 14 10 7 8 12 12 12 12 9 8 9 7 7 8 9 7 5 8 8 7 6 6 6 5 5 6 6 5 5 5 5 5 5 5 5 5 5 4 4 4 3 3 4 4 3 4 4 4 3 4 4 4 3 2
4 1 4 2 3 2 6 2 3 1 0 0 1 2 1 0 6 6 5 6 2 3 3 3 6 5 5 5 5 6 9 6 6 9 13 14 12 10 14 13 12 13 12 10 10 9 9 9 11 12 11 9 9 10 9 7 7 7 9 7 6 8 7 7 7 6 6 6 6 7 6 6 5 6 6 6 6 5 5 5 5 4 4 4 4 5 6 5 4 5 4 4 4 4 4 4 2
2 6 5 3 1 2 2 2 2 1 0 1 1 3 6 10 10 5 3 6 2 1 4 5 5 5 5 4 7 7 6 5 9 13 12 11 10 10 13 11 10 11 9 7 8 12 11 7 6 7 11 13 12 9 8 8 7 8 8 7 6 9 8 8 7 6 6 6 7 7 7 7 6 5 6 6 6 6 5 5 6 5 5 5 5 6 6 5 5 5 6 5 5 5 4 4 4
5 1 4 2 3 3 2 1 4 4 0 3 1 3 6 6 3 2 3 2 0 2 5 5 5 5 6 6 6 8 9 9 12 11 9 10 9 9 11 8 10 10 7 9 13 12 10 9 8 7 8 9 11 13 11 8 7 7 8 8 7 8 8 9 9 9 8 7 7 7 8 7 6 6 6 6 7 5 6 5 5 6 6 6 6 5 5 5 5 6 6 6 5 4 4 4 4
3 5 2 1 4 2 4 2 3 5 1 4 4 2 8 8 8 5 4 3 2 4 5 5 6 6 6 6 7 8 10 7 10 10 11 11 10 10 11 12 10 10 12 12 10 10 11 11 9 9 10 11 9 9 12 11 8 6 7 8 8 8 8 8 8 8 8 8 9 8 9 9 10 9 7 5 6 8 8 8 7 5 8 6 5 6 6 6 6 5 5 7 7 5 6 5 3
5 2 1 3 1 3 2 0 2 3 1 3 2 6 4 3 2 0 2 2 1 4 7 6 6 8 8 7 7 8 8 9 10 12 13 11 10 10 11 11 11 13 12 11 12 11 12 12 11 12 11 12 14 11 9 9 10 11 10 8 8 7 7 7 7 10 11 11 10 10 12 12 12 11 11 11 7 5 4 4 6 6 6 7 8 6 6 5 6 6 6 4 5 7 7 7 5
3 3 2 3 5 2 2 2 1 3 1 4 2 2 7 4 5 5 4 1 2 1 6 7 7 7 8 7 7 9 9 9 12 13 15 13 11 13 11 10 11 10 10 12 11 12 14 12 12 12 12 10 8 11 12 9 6 7 9 10 10 9 11 11 9 7 7 8 8 9 9 8 8 8 7 7 9 10 9 7 4 7 7 5 5 6 5 5 5 7 7 5 3 4 6 7 6
8 4 3 0 0 2 2 2 1 1 2 4 1 4 12 12 9 9 5 2 3 7 7 7 8 8 8 7 7 9 9 10 15 11 10 10 12 12 10 11 10 10 9 11 10 11 9 9 10 11 12 12 11 8 8 11 11 7 4 5 8 10 7 6 8 8 8 6 6 8 8 8 7 7 8 8 7 7 7 7 8 10 8 6 5 5 5 6 6 5 5 5 2 0 2 4 6
9 8 6 5 6 4 4 4 2 1 2 3 3 8 7 10 11 11 2 3 3 7 5 7 9 8 9 8 8 7 9 13 12 6 6 7 8 9 10 9 10 10 9 9 11 10 11 10 9 9 11 11 10 10 6 6 7 10 10 7 7 6 6 5 5 7 8 9 10 11 13 12 12 12 12 11 10 9 7 6 6 7 8 8 9 7 6 8 9 8 7 8 7 4 2 3 4
6 4 5 4 4 1 3 2 1 0 2 5 5 5 5 11 12 12 10 2 4 7 9 9 9 8 8 8 8 9 9 14 3 4 5 6 7 9 9 9 10 10 10 10 11 12 12 12 12 14 12 11 10 10 10 8 8 7 8 12 12 10 9 8 6 7 8 8 8 11 11 11 12 15 13 10 10 9 7 8 9 8 8 8 10 11 11 8 6 7 7 6 8 6 3 3 4
6 5 5 2 1 2 1 0 2 2 2 2 1 2 9 12 11 12 8 1 9 10 10 10 11 10 9 8 9 10 12 4 4 6 6 5 7 7 7 7 8 10 12 12 14 15 14 13 13 13 9 11 11 11 10 10 10 10 9 10 9 8 8 9 10 6 7 8 8 8 10 10 10 9 8 9 9 9 7 6 8 8 7 7 5 4 6 7 9 7 7 6 3 7 6 7 7
4 5 4 2 4 2 2 1 2 3 1 5 1 2 9 11 11 11 9 9 6 7 8 7 7 9 7 6 9 10 7 11 5 9 7 8 7 7 7 7 9 12 10 13 14 11 11 11 12 11 10 11 12 12 10 11 10 9 9 6 7 4 4 6 7 5 5 6 7 7 8 9 9 8 9 10 10 9 9 9 8 8 9 7 7 7 7 9 8 10 10 9 6 2 2 7 9
6 5 4 5 3 4 2 3 1 3 2 2 1 4 10 7 6 11 11 5 6 5 7 10 7 10 11 9 5 6 8 10 11 9 10 8 8 7 5 8 9 7 7 9 10 12 11 11 12 12 11 11 11 12 12 10 8 5 4 3 3 3 4 2 2 1 3 4 6 6 5 7 10 10 10 10 9 9 11 12 11 10 10 10 11 11 10 11 9 9 10 9 10 8 6 9 10
1 3 4 4 3 4 3 3 1 1 0 2 0 3 8 4 5 6 2 4 4 5 5 6 9 8 9 9 9 9 13 11 12 11 10 10 8 10 9 8 4 8 9 9 10 11 10 14 13 12 10 10 9 9 10 7 6 5 4 4 4 4 3 3 3 5 5 6 4 6 8 5 6 10 11 12 11 12 13 10 10 9 10 10 10 10 11 13 14 13 13 12 13 13 10 6 8
0 4 6 5 5 7 1 2 4 2 2 4 2 3 4 4 7 9 8 8 6 3 4 8 5 4 5 8 10 7 8 9 12 13 11 6 7 7 7 6 7 7 9 10 9 9 9 8 8 8 8 8 9 10 10 9 9 8 7 7 7 5 6 6 9 11 9 9 11 8 4 7 7 5 6 10 11 11 11 12 12 10 11 10 10 12 9 7 8 10 13 12 13 12 12 10 10
3 4 5 3 7 7 7 5 3 1 2 2 2 4 5 6 5 3 4 8 11 8 4 9 6 6 4 7 7 7 8 9 7 9 10 10 9 7 8 7 7 8 10 5 7 8 8 7 8 9 9 8 8 9 10 9 9 9 11 12 11 10 10 9 7 6 8 8 7 7 8 7 7 8 6 6 9 9 9 8 8 10 10 10 10 9 10 10 9 10 10 8 11 11 9 9 11
5 1 6 8 9 9 6 6 2 1 1 1 5 3 1 6 8 5 5 5 8 8 9 5 4 6 5 5 7 7 8 7 9 9 8 8 7 7 8 6 6 8 6 6 7 6 9 9 9 9 8 8 8 9 10 10 11 10 10 10 10 10 10 10 9 8 6 5 7 8 7 6 7 6 6 6 6 8 10 11 11 10 9 9 8 10 10 10 9 8 9 10 8 8 11 13 13
1 1 4 5 7 6 6 6 5 1 1 4 3 3 1 5 8 4 4 2 4 7 8 6 6 4 5 6 6 6 7 7 7 8 8 7 6 6 6 7 7 5 5 6 6 7 6 7 8 7 8 8 8 10 10 10 10 11 10 9 9 8 9 7 5 5 6 5 7 6 6 6 6 6 6 5 5 4 6 9 11 11 11 10 10 9 10 11 16 15 14 13 13 11 12 13 10
1 6 7 8 7 7 5 4 5 1 2 4 2 4 2 8 6 5 4 1 7 10 7 5 4 5 7 7 7 7 6 6 5 7 9 9 7 5 5 6 7 5 3 4 4 5 6 6 8 8 8 8 8 10 10 10 10 9 9 10 11 9 7 5 4 6 6 5 7 7 6 6 6 6 6 6 5 5 5 5 7 10 11 11 11 11 12 10 10 11 15 16 15 15 12 11 12
10 4 8 7 9 5 4 7 3 3 1 5 3 4 1 5 5 6 4 5 5 2 2 3 6 6 5 4 4 6 7 7 7 7 6 7 6 4 3 1 2 2 2 3 5 5 5 7 8 9 9 7 8 10 10 11 10 10 11 11 11 11 10 8 6 6 5 4 7 7 6 7 6 6 6 6 6 5 5 5 6 7 8 8 8 8 9 11 11 11 11 12 13 15 12 14 13
5 3 5 7 5 6 5 5 5 2 5 3 1 1 0 5 5 5 7 5 5 2 3 2 5 6 7 6 7 7 6 6 7 6 6 7 7 5 5 4 4 2 2 4 5 4 6 6 7 8 6 7 7 9 10 10 9 9 9 10 11 11 10 9 10 10 9 9 8 8 6 4 5 5 5 5 6 7 7 7 6 6 7 8 9 9 10 10 10 10 9 11 11 14 13 12 12
5 7 8 8 1 4 2 3 2 5 5 0 3 1 1 9 9 6 7 10 8 8 6 3 3 8 8 7 7 7 7 7 6 6 5 5 5 5 5 4 3 3 3 2 3 4 4 5 7 8 8 7 8 8 9 9 9 10 10 10 10 8 8 9 9 9 8 8 7 7 6 6 5 5 6 7 7 9 8 7 6 7 7 7 8 9 10 10 10 10 11 11 12 13 13 13 13
4 10 7 6 3 2 3 3 1 5 5 4 1 0 3 4 8 13 17 15 3 6 9 6 5 8 10 8 9 10 9 7 5 4 4 4 4 5 4 4 3 2 1 1 2 3 4 4 5 7 7 6 5 6 7 8 9 8 8 8 8 7 8 8 8 8 8 7 7 8 8 8 7 8 7 9 9 9 7 7 8 8 7 7 7 8 8 9 9 9 10 11 13 12 11 14 14
6 1 7 8 8 5 4 3 4 5 5 2 3 1 6 4 0 1 8 10 4 3 4 4 6 9 8 8 9 10 9 6 3 5 2 2 5 5 4 3 3 3 2 1 2 3 3 5 5 6 5 6 6 6 5 7 7 7 7 7 7 7 8 7 7 7 7 8 7 8 7 7 7 7 8 8 6 8 9 8 8 8 7 7 7 7 7 7 8 9 9 11 11 10 11 11 12
0 3 4 6 6 6 2 3 2 1 0 1 1 6 3 4 2 7 6 6 8 4 4 3 8 7 6 8 8 8 6 7 5 4 6 5 2 4 5 4 2 2 3 3 4 4 5 6 6 7 7 8 8 8 8 7 7 5 5 6 7 6 5 5 6 6 7 7 8 9 9 8 8 7 7 7 7 7 8 8 8 8 8 8 7 7 7 7 8 9 9 9 11 7 10 12 12
4 4 3 3 2 11 7 2 0 0 4 5 2 7 6 8 7 8 3 3 6 1 3 2 4 2 2 6 7 6 5 5 5 6 6 6 5 3 5 5 4 3 4 6 6 6 7 6 6 6 6 5 7 8 8 8 8 8 8 8 7 7 7 8 8 8 9 7 7 7 7 8 7 7 7 7 8 7 7 7 7 8 8 8 8 7 7 8 8 9 9 9 10 9 10 13 12
9 1 7 2 2 5 5 3 2 4 2 7 2 6 6 4 6 5 6 4 6 2 4 3 2 1 3 3 4 4 5 6 7 6 5 5 5 5 4 5 5 4 4 6 7 6 5 4 4 6 5 7 6 5 7 7 8 8 8 8 8 9 8 8 7 7 6 6 6 5 5 5 7 6 6 7 7 8 8 8 8 8 8 8 8 8 7 8 8 8 8 9 8 8 10 10 11
3 3 5 6 2 1 1 5 1 1 2 5 4 3 6 6 7 5 1 0 2 3 2 1 1 1 2 2 4 5 4 4 5 6 7 6 5 4 3 3 3 4 5 5 4 5 6 5 5 5 6 5 4 4 5 5 6 7 7 8 9 8 8 7 7 7 6 7 7 6 6 6 4 5 6 6 7 7 7 8 9 9 8 8 8 8 8 8 9 8 8 9 9 10 10 11 10
2 2 3 1 3 1 4 6 3 4 3 2 6 3 6 7 7 8 9 3 1 1 4 0 2 5 5 3 2 3 2 3 3 4 4 5 5 4 3 2 3 4 4 4 5 4 5 5 5 5 4 4 3 4 5 7 7 6 7 6 7 7 7 7 7 6 7 7 7 6 7 7 8 6 6 7 7 8 8 8 8 8 9 8 8 8 8 9 9 9 9 9 9 10 11 11 10
2 2 2 1 2 2 5 2 3 4 5 5 2 5 5 7 7 6 8 7 4 3 3 3 2 2 4 4 1 0 0 1 2 3 4 4 4 4 2 2 2 2 2 2 3 6 5 4 4 4 5 5 5 5 5 7 5 7 7 8 8 8 8 6 6 7 7 7 6 6 7 7 6 7 7 8 8 8 8 8 8 9 9 9 9 9 8 9 9 9 8 9 10 11 12 11 9
6 10 10 10 9 5 4 5 3 2 3 4 4 8 5 10 4 9 7 7 3 4 3 1 0 0 2 3 3 3 1 1 4 4 4 5 5 5 3 2 2 2 2 1 0 1 3 5 5 6 6 6 6 6 6 6 6 6 8 8 7 5 5 5 6 6 7 7 7 7 8 7 9 8 8 9 9 8 8 8 9 9 9 9 9 10 9 9 9 9 9 8 9 9 10 11 10
Wind_Direction
4 2 345 318 28 97 55 2 168 325 57 134 347 138 172 26 204 100 126 78 132 235 180 77 130 144 180 201 189 184 233 138 205 137 208 237 269 171 158 150 138 134 134 140 140 128 126 122 118 113 113 112 112 108 105 101 101 100 100 97 95 89 92 95 97 97 92 93 98 98 96 92 94 97 99 99 96 91 91 88 87 86 87 85 80 82 84 83 82 83 84 82 81 80 80 78 78
35 330 12 344 44 44 227 134 96 356 39 85 234 100 238 278 101 198 164 189 196 151 167 111 97 91 71 71 116 142 101 314 183 56 118 221 124 149 169 156 144 137 137 138 130 120 120 125 120 117 117 118 115 112 110 110 107 104 100 100 102 103 105 111 103 98 101 98 95 97 96 93 92 100 105 101 98 93 88 86 87 87 86 83 84 84 84 84 87 84 84 81 80 80 82 82 82
16 5 324 24 32 72 95 27 287 38 88 148 262 207 353 136 199 209 199 216 223 97 132 88 106 45 21 108 45 45 227 76 179 268 82 136 136 192 183 162 145 135 136 138 138 119 115 128 126 123 121 120 118 114 112 109 106 106 104 103 100 94 88 87 90 102 92 86 103 103 95 91 94 97 99 100 97 93 90 90 89 86 84 85 87 86 84 85 86 85 84 86 86 83 82 81 80
90 35 142 67 244 26 53 31 86 123 124 195 320 255 186 177 212 188 226 241 136 119 139 142 148 239 150 133 228 89 16 321 188 153 137 166 192 154 172 157 145 137 135 141 143 120 121 135 132 127 125 123 122 122 118 115 112 107 107 106 102 99 100 103 94 87 82 97 101 103 98 95 96 101 102 100 97 95 90 83 82 85 93 93 93 90 85 81 84 87 84 82 82 81 81 81 81
60 352 77 111 112 14 101 101 134 90 193 187 168 248 233 202 171 171 131 176 186 90 58 147 77 355 177 97 132 139 247 180 165 198 103 152 93 154 162 150 145 141 143 147 145 126 130 134 132 131 129 127 127 123 120 117 116 115 111 107 105 101 95 90 95 99 94 90 94 96 105 103 102 101 98 101 100 94 92 89 85 83 84 84 85 88 88 87 84 84 85 86 86 86 85 84 82
54 42 5 89 61 162 75 75 61 162 221 156 120 228 210 203 155 170 149 183 248 226 162 157 163 187 160 318 190 84 194 119 154 201 180 179 159 162 159 151 148 146 147 147 148 132 138 137 138 139 134 131 127 129 127 125 122 120 117 114 109 105 102 99 97 99 98 96 100 107 103 101 100 99 99 100 96 94 93 91 88 84 85 88 92 92 91 91 91 93 93 89 86 84 83 82 80
246 47 360 45 39 50 162 126 202 195 278 163 157 247 190 187 186 133 128 123 339 53 122 201 109 99 80 285 20 245 224 128 142 222 170 149 160 167 160 158 150 149 149 152 152 145 145 144 147 145 136 131 134 134 132 129 126 122 121 118 115 109 99 95 100 95 91 96 101 105 103 102 103 100 100 100 101 98 95 94 96 95 92 100 94 90 91 93 94 93 90 89 88 86 85 86 85
62 139 320 105 359 45 58 131 236 175 13 195 287 244 226 175 156 148 164 126 206 180 202 265 261 98 260 70 156 213 2 199 244 125 158 141 159 173 168 157 153 152 152 150 155 150 153 152 152 145 139 136 138 137 135 132 130 126 123 122 117 112 104 101 104 98 96 96 104 105 104 104 103 106 102 100 101 100 97 97 98 95 93 95 94 94 97 98 94 90 93 91 87 88 88 88 90
359 85 261 75 64 32 71 88 267 252 295 271 278 227 292 179 171 137 161 226 14 108 160 208 201 166 206 73 144 276 298 294 272 176 147 155 162 175 169 164 158 156 157 154 155 154 161 157 158 150 143 140 140 142 139 134 131 131 128 125 122 116 111 106 106 105 104 106 103 105 104 103 105 107 108 105 103 103 106 101 94 96 98 96 94 94 99 99 99 100 98 96 95 90 88 90 89
39 54 245 117 134 33 18 285 112 179 237 233 242 221 178 174 136 126 146 101 198 136 223 23 202 144 133 125 84 313 94 326 89 127 151 160 164 173 173 171 164 157 157 161 158 156 156 162 164 151 147 143 143 144 139 136 134 133 132 129 124 120 116 112 105 107 109 112 108 108 107 107 108 107 107 107 108 109 106 101 101 100 101 99 99 97 98 98 99 98 98 97 96 92 93 92 92
314 21 129 79 32 76 162 258 264 315 268 314 283 239 205 161 122 114 89 131 46 161 203 75 107 133 99 254 214 275 329 246 144 154 155 162 161 173 174 174 167 161 160 162 160 158 155 165 160 155 149 146 144 140 140 137 136 135 134 130 126 124 122 117 108 107 117 120 117 111 110 110 107 109 109 109 109 111 106 102 99 100 104 103 101 101 98 97 98 97 97 98 97 97 95 93 94
351 15 10 102 140 143 227 155 270 282 296 335 137 212 185 155 114 124 139 135 194 164 173 159 210 150 62 335 270 234 339 153 159 153 158 152 159 171 171 168 167 164 164 163 162 160 162 153 162 160 154 144 144 137 138 142 136 135 137 133 131 129 126 122 115 112 107 101 110 120 121 115 111 107 107 109 112 111 107 103 103 102 106 105 103 96 97 97 98 98 99 99 99 100 99 97 97
109 90 88 86 153 140 128 101 249 306 343 265 162 215 135 133 178 171 158 108 108 131 276 202 140 83 145 181 258 310 169 176 171 151 148 153 158 158 168 166 165 166 167 168 168 166 167 147 158 163 153 138 137 136 140 141 136 135 137 137 137 131 126 124 123 118 116 113 99 79 73 76 99 114 111 109 112 121 110 102 99 102 108 110 103 97 96 98 100 103 103 103 105 105 105 105 102
124 180 127 131 25 115 133 191 332 130 276 210 278 140 181 134 229 166 130 135 202 170 251 179 142 137 106 1 273 293 226 174 165 154 140 145 141 154 167 164 164 164 171 174 175 173 167 165 160 158 155 149 147 137 140 139 138 134 131 132 132 129 129 124 121 112 106 97 92 86 81 81 78 81 87 84 67 68 99 103 102 105 108 107 103 103 104 103 104 104 104 104 106 106 107 106 103
129 151 82 116 49 85 240 106 193 139 208 178 168 143 175 275 101 135 162 145 241 215 311 225 187 131 229 156 265 203 189 168 153 144 138 139 146 159 166 163 166 167 174 178 178 174 169 165 152 157 158 150 150 150 144 140 140 131 128 129 129 126 118 115 103 99 104 104 96 91 88 83 79 76 79 76 65 62 96 103 106 111 117 114 110 111 109 106 106 107 106 108 107 106 106 105 102
138 94 81 101 116 132 222 117 288 104 251 176 159 242 126 23 200 125 245 152 165 314 275 188 64 236 185 134 228 229 186 142 144 137 137 144 151 155 160 166 168 173 178 179 179 182 176 170 154 160 160 159 150 155 154 150 140 135 131 132 130 123 116 106 100 99 97 97 95 94 93 89 83 79 80 75 70 71 85 102 104 115 121 121 119 116 112 112 114 109 110 110 106 108 103 97 95
97 82 61 44 159 175 215 160 148 188 239 238 281 170 158 185 223 260 88 126 120 183 338 266 212 26 179 170 229 316 204 137 135 138 142 148 157 163 164 170 173 174 184 189 186 185 185 178 161 164 161 160 151 155 156 157 148 135 128 128 125 120 114 104 101 99 98 92 93 90 89 89 90 89 87 84 80 77 78 98 114 119 117 119 121 119 116 116 113 110 110 108 105 96 86 78 75
55 81 114 87 199 143 199 179 187 213 126 208 186 205 135 173 178 170 132 42 60 357 223 314 326 259 245 277 289 285 207 143 148 151 157 158 166 170 180 184 179 191 189 190 191 190 188 189 169 167 163 162 157 153 154 158 150 145 126 133 134 122 110 111 106 105 104 102 100 92 86 90 95 101 102 100 83 77 80 91 96 103 103 111 115 117 114 114 113 119 117 111 95 88 75 85 79
90 128 92 200 184 237 164 189 188 126 216 155 184 187 170 202 144 211 124 278 28 133 270 8 302 289 294 330 286 179 164 150 158 164 163 172 180 186 188 186 188 189 195 193 190 191 196 181 175 177 166 163 160 155 152 154 160 156 146 140 132 122 120 117 111 112 111 105 100 103 103 94 95 100 109 103 87 79 84 91 92 91 82 84 103 106 105 115 119 117 106 91 88 81 78 77 79
210 114 154 246 206 216 204 169 185 230 138 129 143 188 146 225 146 181 199 149 65 195 198 294 250 242 226 334 138 162 164 158 165 171 178 183 190 190 190 191 192 195 193 194 188 186 194 191 187 179 174 167 163 159 156 157 160 160 161 151 146 136 134 135 132 128 119 114 112 111 111 107 98 99 103 103 97 86 83 83 83 79 72 64 79 90 100 110 106 90 80 84 78 75 81 82 89
212 84 156 222 191 120 220 188 237 224 153 143 138 116 153 224 196 162 165 117 246 262 230 183 206 218 196 180 164 160 165 165 171 181 185 192 198 202 203 197 193 190 187 179 189 194 193 191 188 181 173 170 170 165 165 166 163 161 163 157 150 149 139 139 140 138 131 124 121 120 114 111 110 110 102 98 96 99 89 87 85 82 77 75 82 79 79 72 75 89 82 68 77 84 87 84 98
92 137 191 149 157 72 245 198 206 158 313 116 133 136 207 108 87 128 153 174 219 212 236 214 217 184 164 170 175 164 168 170 177 185 193 195 197 201 201 201 202 189 170 181 197 196 195 197 187 182 180 184 175 174 174 162 160 169 161 156 155 151 151 146 149 148 145 131 135 129 124 118 119 117 119 107 105 104 101 101 96 97 92 91 74 104 105 105 97 91 90 84 84 78 81 86 72
163 311 25 167 197 118 244 260 223 151 125 141 150 195 108 143 174 176 175 206 227 230 267 248 211 178 166 148 156 167 172 180 185 193 193 197 202 203 201 198 196 198 188 199 190 199 191 194 190 182 185 190 185 172 177 169 174 172 168 158 153 162 158 153 156 154 154 148 142 146 142 141 134 131 128 125 113 110 110 116 115 112 113 110 110 123 113 103 101 99 96 93 93 93 86 84 86
104 178 134 144 173 75 225 228 152 142 135 181 192 121 126 141 185 116 212 238 201 114 271 260 220 134 147 153 174 173 183 184 193 196 195 200 199 201 197 195 195 192 199 202 198 193 197 196 184 181 189 187 193 175 180 179 180 172 169 157 155 153 158 166 161 162 155 157 156 158 151 148 148 144 138 136 125 119 115 113 116 118 117 116 127 128 122 112 103 100 104 102 101 93 97 91 95
102 115 202 139 89 305 354 126 113 131 112 349 128 135 225 181 170 96 248 242 247 287 24 94 120 141 158 165 177 186 190 197 198 198 202 212 208 208 210 211 195 188 204 202 198 198 198 197 191 188 189 190 190 180 191 187 181 182 159 169 177 154 159 170 170 159 166 167 164 162 160 149 151 146 146 142 140 127 123 127 130 123 125 129 137 131 124 123 114 116 115 113 110 111 110 105 103
148 138 119 127 95 358 125 79 74 106 120 99 114 59 349 227 218 238 242 254 293 274 98 123 122 148 175 184 184 184 191 198 196 193 202 192 185 199 211 208 205 208 206 202 197 201 193 191 197 199 194 189 190 185 187 190 188 199 172 167 180 166 168 151 155 168 175 174 174 173 175 164 162 159 151 148 147 141 136 133 132 135 137 138 144 136 139 126 128 124 115 116 119 117 114 113 117
132 102 96 105 321 114 8 129 37 350 113 302 137 119 91 309 69 273 23 248 330 97 108 170 156 183 196 193 193 199 192 196 195 190 163 189 203 205 210 207 210 215 204 207 202 195 191 187 201 202 203 189 189 196 186 187 184 201 195 169 168 178 169 150 154 161 172 182 173 171 168 172 158 156 149 154 152 146 148 149 149 144 143 148 145 129 130 130 127 127 135 134 132 124 111 118 124
96 136 107 44 5 85 6 83 35 321 50 41 127 125 357 331 90 233 236 351 295 160 163 192 201 201 201 209 204 206 214 204 162 166 197 192 206 205 205 205 210 208 207 210 205 187 180 192 196 201 200 191 195 198 194 190 190 191 205 180 169 178 164 163 157 161 164 172 170 172 173 168 166 158 158 157 159 159 162 160 154 160 155 148 148 139 133 129 122 116 107 103 110 112 115 111 109
156 183 97 319 16 48 9 76 330 19 111 48 238 90 300 16 223 254 259 332 64 149 186 214 224 233 236 228 227 222 219 195 191 203 210 209 208 205 212 211 206 208 217 209 203 195 198 189 193 190 189 191 196 199 198 200 190 186 193 200 171 169 172 167 172 168 164 166 176 177 171 169 171 167 170 165 163 161 160 159 161 168 159 154 148 141 130 128 127 123 116 121 117 116 114 109 95
115 44 117 50 26 7 357 312 330 86 219 351 304 227 259 245 243 270 331 355 27 111 240 237 239 244 251 241 228 238 237 200 213 217 215 215 211 210 221 214 211 212 209 205 197 209 208 200 184 185 190 192 196 205 198 199 195 190 189 193 182 174 174 174 175 169 172 168 172 174 173 176 178 177 165 168 165 163 165 170 166 164 163 156 150 152 151 153 144 141 140 138 137 139 136 133 136
136 223 54 133 132 247 321 24 316 124 299 5 148 218 282 273 284 283 334 21 134 237 248 253 255 263 246 242 242 237 238 220 226 231 232 226 222 220 223 217 212 210 203 205 208 206 196 205 197 204 185 199 194 197 200 210 196 191 190 193 189 181 186 184 180 178 177 176 172 176 178 176 186 180 181 170 174 167 169 176 180 170 156 156 159 172 158 157 154 156 156 143 141 139 137 142 140
24 84 264 334 166 259 300 53 21 164 2 27 93 304 248 258 259 278 317 357 150 239 258 266 272 263 258 246 243 246 243 244 251 248 238 233 221 223 218 219 207 205 207 208 210 200 208 203 196 203 198 207 203 203 197 199 203 194 190 191 189 185 187 189 184 187 186 178 183 182 185 185 182 178 176 186 184 181 177 179 190 165 157 158 168 166 167 164 164 158 176 155 147 156 150 144 146
2 95 252 201 101 233 344 352 37 342 105 6 153 222 328 318 263 297 349 65 115 235 276 278 273 266 264 251 242 242 257 249 250 244 240 230 227 224 223 220 210 211 209 204 204 202 209 206 201 202 203 201 204 201 203 201 201 203 197 193 200 190 191 191 184 184 188 194 192 192 189 188 195 182 179 178 183 203 208 188 162 157 166 164 165 174 180 172 159 161 172 207 164 155 161 146 148
234 28 146 216 165 214 240 308 324 11 97 205 8 208 232 221 275 290 303 104 79 288 269 278 272 266 257 257 247 244 241 249 243 237 236 224 228 222 225 221 218 213 213 211 207 203 208 203 203 205 207 210 207 200 200 203 201 205 203 195 191 209 207 194 186 195 208 193 184 187 185 190 198 196 181 175 178 183 188 182 156 154 169 184 173 173 177 163 168 167 162 182 212 151 156 154 148
193 177 95 158 347 216 225 147 231 26 19 182 318 256 268 274 285 280 257 191 191 245 247 263 274 269 267 252 246 244 244 243 246 236 234 228 229 230 224 223 219 214 213 210 209 211 209 207 206 207 206 205 211 210 203 203 204 207 210 201 197 199 206 211 190 174 178 184 189 180 177 181 189 198 190 183 187 183 183 177 171 171 170 166 165 174 168 175 176 175 154 145 117 19 145 148 139
176 168 175 146 148 205 204 240 279 178 169 229 198 221 261 285 286 285 281 173 196 255 270 271 262 258 260 254 253 249 242 250 250 252 238 227 223 222 223 218 220 217 211 205 209 208 209 207 207 210 207 204 202 210 202 196 195 200 211 223 226 214 203 199 202 190 169 184 192 194 197 195 190 189 194 193 193 186 183 181 164 157 167 165 169 178 182 181 179 166 165 150 138 110 65 110 123
113 77 96 164 152 279 282 282 270 119 112 235 231 267 269 270 267 274 279 245 263 270 270 262 259 257 251 247 239 243 247 245 262 232 237 235 227 222 220 210 214 211 211 204 206 210 207 205 197 209 204 197 197 198 201 199 198 197 204 208 224 229 230 219 215 211 195 190 197 198 195 199 197 199 194 182 193 191 179 160 161 173 176 177 179 190 186 176 174 171 154 157 144 134 133 149 171
136 135 143 191 211 141 225 140 356 321 157 283 48 307 269 259 271 268 277 313 263 250 253 257 257 247 245 240 250 243 243 302 305 287 268 259 242 233 221 214 200 202 216 202 207 209 207 203 204 210 192 198 202 199 197 197 201 202 196 204 204 202 201 207 215 216 213 186 176 194 201 198 199 203 198 191 190 183 175 176 179 169 173 188 187 152 160 162 166 159 150 144 204 161 160 178 183
53 142 155 113 257 240 303 321 344 334 109 263 26 312 270 264 256 265 257 241 236 226 218 234 233 258 249 234 241 256 280 271 287 267 274 260 258 249 220 215 214 215 208 202 213 208 205 205 210 204 197 196 203 200 196 203 202 203 200 200 196 192 204 202 211 187 188 198 184 186 200 200 196 193 193 191 187 177 176 170 179 177 183 176 177 176 160 167 175 170 170 172 155 201 149 183 194
113 97 101 199 238 135 239 269 332 2 88 307 246 309 280 283 273 256 262 252 262 264 257 261 243 254 255 248 235 246 259 270 270 259 260 257 249 256 246 228 222 215 214 209 206 205 204 207 207 201 200 198 199 200 202 205 198 189 193 175 176 167 183 150 171 62 180 209 215 188 203 202 192 192 189 191 192 183 180 182 177 178 184 181 183 178 178 180 174 177 178 183 172 167 194 202 218
340 138 141 143 159 230 147 195 127 328 30 66 45 289 298 328 315 311 320 330 313 284 321 274 262 246 264 281 275 233 246 248 260 264 256 253 257 251 237 237 215 211 216 211 202 204 202 206 205 199 197 197 197 193 195 178 148 134 119 72 72 81 54 113 185 229 219 209 211 213 214 201 214 197 185 185 190 195 195 187 184 181 179 183 182 185 184 186 186 186 178 178 183 185 187 191 211
347 227 173 192 177 138 223 93 117 25 309 6 49 318 310 305 284 245 288 344 333 291 333 282 270 287 270 260 259 273 257 247 247 256 256 253 244 263 266 247 226 226 223 218 207 208 204 204 190 189 188 187 191 186 181 171 176 171 151 154 163 181 195 184 204 212 208 198 210 212 197 197 200 209 197 191 193 193 193 193 191 186 192 193 195 198 196 189 188 178 187 185 185 191 177 173 200
118 245 162 153 148 131 131 139 84 97 146 351 16 186 264 325 314 282 324 327 296 301 257 269 303 283 270 252 265 271 277 285 265 259 265 264 257 255 257 241 228 226 231 213 205 202 197 190 187 186 187 185 179 175 172 172 177 184 189 195 197 199 206 215 216 215 211 216 216 207 214 207 211 205 200 197 189 188 190 194 198 201 201 202 201 200 195 196 195 202 193 191 193 183 163 180 191
211 250 127 118 119 131 162 116 115 165 248 273 47 93 187 303 287 277 302 293 294 305 292 300 296 282 273 270 272 273 275 268 275 272 266 256 270 251 261 252 219 227 229 206 202 193 191 189 181 184 181 178 177 169 173 181 186 189 193 201 203 207 209 217 202 209 206 191 201 216 215 216 214 219 213 203 200 189 186 188 190 192 194 199 194 204 198 191 189 196 206 218 224 207 197 197 202
221 220 146 133 135 132 119 93 101 106 45 274 338 344 296 257 266 312 354 352 321 303 270 300 304 291 286 291 281 272 269 272 266 273 274 270 262 273 269 285 287 278 225 200 196 192 185 177 175 170 174 170 173 173 176 188 190 189 194 197 206 216 216 216 185 189 196 190 206 211 215 219 216 216 216 211 207 200 188 189 187 191 193 194 192 201 203 197 199 192 191 196 206 209 211 219 217
250 132 95 96 86 73 90 99 82 353 72 268 235 11 212 277 272 326 330 282 270 257 274 285 260 275 295 302 306 304 308 308 288 254 268 278 272 263 254 279 291 280 254 207 189 167 168 163 163 166 171 173 171 175 180 186 191 185 193 199 206 210 204 197 164 178 196 168 207 207 213 213 216 216 216 218 213 202 194 194 203 201 199 198 198 208 211 211 210 208 203 202 200 206 209 214 216
131 139 87 46 40 30 32 61 86 64 330 252 258 307 153 300 271 228 151 211 204 253 312 269 287 290 275 263 275 302 316 315 312 306 274 269 271 247 230 270 314 355 39 124 145 157 159 161 162 170 176 169 173 178 180 188 190 189 197 199 203 206 201 190 178 194 163 172 200 211 209 216 214 218 219 222 219 217 212 193 194 200 200 199 198 201 206 204 205 205 208 209 211 210 209 208 216
122 107 130 85 8 8 29 346 31 121 267 261 275 288 345 188 291 283 243 277 226 189 159 179 305 297 296 309 318 317 315 309 308 318 338 344 354 16 33 51 24 11 58 97 128 144 159 163 164 161 167 174 179 181 186 189 189 196 202 198 203 207 196 193 202 206 198 201 202 206 210 203 216 222 218 220 219 221 224 222 205 198 198 195 201 202 206 207 208 210 209 207 209 212 215 209 213
84 92 95 114 221 36 277 7 248 214 198 258 337 202 355 240 234 255 280 261 247 218 211 198 260 289 297 301 314 318 312 312 317 327 328 334 340 340 0 352 34 63 97 129 152 151 153 160 167 163 183 184 186 184 190 189 191 199 199 202 209 204 202 201 207 211 204 208 199 204 189 211 212 217 216 217 222 219 219 222 217 214 209 206 205 201 207 205 205 207 213 215 215 213 212 210 214
115 138 142 107 113 81 213 270 284 315 291 282 330 228 262 255 271 246 248 257 201 208 225 233 233 258 279 295 320 320 310 295 275 255 267 282 308 321 318 318 314 313 353 111 176 149 164 169 178 178 187 183 183 187 195 194 205 204 202 206 208 197 205 205 208 209 210 209 199 208 202 201 205 207 208 215 218 220 220 223 227 227 221 211 204 207 207 209 206 207 210 214 215 217 212 212 219
202 64 141 173 143 157 199 192 187 213 198 278 282 67 235 111 228 212 223 254 294 246 255 242 244 254 273 305 299 291 284 286 286 313 274 264 296 288 289 276 291 296 300 285 231 208 171 176 182 186 168 185 177 192 192 206 211 210 208 212 211 202 210 208 213 210 208 206 205 209 207 205 204 206 206 213 203 213 220 224 223 226 221 216 204 203 202 205 207 212 215 220 222 219 217 216 221
226 166 89 99 211 134 130 205 145 166 153 356 230 217 194 181 272 271 247 279 287 278 264 240 261 270 305 307 291 278 289 304 321 328 331 334 282 285 292 276 228 233 253 251 212 195 194 205 196 200 192 185 185 183 196 201 210 206 216 218 223 220 223 221 225 218 220 211 208 204 210 203 206 202 202 202 208 199 209 220 224 225 225 223 215 206 202 203 205 213 220 219 225 214 218 218 224
219 102 191 204 107 99 106 60 7 55 45 262 167 311 292 295 318 284 354 315 280 320 256 233 264 294 329 266 270 285 300 307 321 334 326 317 327 299 267 275 276 209 209 208 208 197 200 199 199 217 228 211 203 203 198 198 195 189 204 202 210 213 216 219 223 225 224 224 221 218 214 214 205 200 204 195 197 196 207 202 218 223 224 224 222 214 207 206 205 214 222 224 229 217 217 222 220
100 182 218 164 138 126 126 190 356 62 178 263 80 235 306 25 283 330 341 339 283 242 254 251 280 244 232 255 277 289 303 301 295 285 272 269 275 290 280 267 255 242 215 205 213 206 208 206 199 213 227 231 237 224 217 204 197 200 201 204 209 212 214 224 229 237 233 233 234 235 237 223 216 211 207 205 196 195 199 201 200 207 215 220 221 220 213 210 207 216 218 225 229 223 226 229 230
141 200 175 114 198 214 318 94 212 153 265 275 304 283 255 193 241 331 320 313 322 319 288 250 214 189 261 288 296 309 304 322 344 345 343 339 324 307 285 264 269 251 229 221 211 191 184 197 201 201 225 241 265 255 259 260 234 217 208 207 205 208 212 215 219 223 224 232 236 230 230 232 236 217 213 204 207 213 210 209 204 208 201 207 211 217 213 215 210 219 221 234 231 223 226 230 227
32 89 77 320 98 150 122 196 174 123 247 60 289 36 248 198 221 204 236 224 251 325 56 19 257 242 239 258 278 298 315 333 318 316 308 296 290 281 265 239 234 227 222 222 205 182 197 194 183 214 243 258 286 242 222 237 238 234 228 215 213 208 207 212 216 216 225 228 230 223 223 226 226 207 212 215 218 217 215 216 216 214 209 208 210 214 215 221 222 227 230 230 221 215 223 227 226
72 93 174 76 30 224 101 30 114 184 171 183 209 315 277 256 213 187 231 219 210 105 17 303 288 264 237 233 232 253 294 294 280 276 295 295 296 306 304 273 257 267 297 280 196 193 197 168 189 200 218 243 242 237 220 238 237 243 240 227 219 205 208 203 209 209 224 229 223 219 223 226 219 223 206 215 216 218 217 220 219 218 215 210 211 214 214 223 228 230 227 225 219 213 215 222 222
162 162 185 169 128 135 161 245 33 91 119 218 132 249 271 271 180 207 214 235 203 185 214 267 303 24 177 196 225 216 198 254 258 278 280 303 322 321 320 128 153 135 150 80 269 212 225 206 208 196 187 208 217 230 218 232 232 236 236 246 245 237 208 196 209 217 226 230 226 221 222 220 223 226 206 217 214 212 213 219 223 223 220 217 215 215 213 219 227 229 229 221 221 217 223 224 217